Flag for U.S.A. Weather past 2 weeks in Aurora, Illinois, U.S.A.

Now
74 °F

Sunny.


Feels Like: 77 °F
Forecast: 59 / 75 °F
Wind: 14 mph from Northeast

Location: Dupage Airport

Current Time: Jul 23, 2014 at 12:02:24 PM

Latest Report: Jul 23, 2014 at 10:52 AM


Visibility: 10 mi

Pressure: 30.13 "Hg

Humidity: 52%

Dew point: 55 °F

Location of AuroraLocation

Historic Weather in Aurora — Graph

°F

Aurora temperature yesterday

Maximum temperature yesterday: 86 °F (at 6:52 PM)
Minimum temperature yesterday: 67 °F (at 5:52 AM)
Average temperature yesterday: 77 °F

Past Weeks' High & Low Weather Summary

 TemperatureHumidityPressure
High86 °F (Jul 22, 6:52 PM)97% (Jul 13, 12:52 AM)30.21 "Hg (Jul 13, 12:52 AM)
Low51 °F (Jul 16, 4:52 AM)35% (Jul 10, 1:52 PM)29.70 "Hg (Jul 8, 10:52 AM)
Average70 °F68%30.01 "Hg
* Reported Jul 8 10:52 AM — Jul 23 10:52 AM, Aurora, Weather by CustomWeather, © 2014

Note: Actual official high and low records may vary slightly from our data, if they occured in-between our weather recording intervals... More about our weather records

Advertising

Aurora weather history for previous 24 hours

 ConditionsComfort  
Time TempWeatherWind HumidityBarometerVisibility
10:52 AM
Jul 23
74 °FSunny.14 mph52%30.13 "Hg10 mi
9:52 AM71 °FSunny.12 mph59%30.13 "Hg10 mi
8:52 AM69 °FSunny.16 mph63%30.12 "Hg10 mi
7:52 AM66 °FSunny.15 mph70%30.11 "Hg10 mi
6:52 AM64 °FSunny.17 mph75%30.09 "Hg10 mi
5:52 AM62 °FClear.12 mph78%30.09 "Hg10 mi
4:52 AM63 °FClear.10 mph78%30.06 "Hg10 mi
3:52 AM64 °FClear.13 mph78%30.05 "Hg10 mi
12:52 AM75 °FMostly cloudy.13 mph74%29.99 "Hg10 mi
11:52 PM
Jul 22
79 °FThundershowers. Mostly cloudy.9 mph84%29.97 "Hg3 mi
11:04 PM79 °FThundershowers. Partly cloudy.15 mph88%29.98 "Hg7 mi
10:52 PM79 °FClear.12 mph88%29.93 "Hg7 mi
9:52 PM81 °FPassing clouds.13 mph82%29.93 "Hg8 mi
8:52 PM83 °FBroken clouds.9 mph77%29.94 "Hg9 mi
7:52 PM85 °FPartly sunny.12 mph72%29.93 "Hg8 mi
6:52 PM86 °FMostly cloudy.10 mph70%29.93 "Hg8 mi
Weather by CustomWeather, © 2014

See weather overviewHow to use our weather pages